Regional Weather Roundup
Issued by NWS

Home | Current Version | Previous Version | Text Only | Print | Product List | Glossary Off
Versions: 1 2 3 4 5 6 7 8 9 10 11 12 13 14 15 16 17 18 19 20 21 22 23 24 25 26 27

000
ASUS45 KBOU 250207
RWRCO

WEATHER ROUNDUP FOR COLORADO
NATIONAL WEATHER SERVICE DENVER/BOULDER CO
800 PM MDT MON APR 24 2017

NOTE: "FAIR" INDICATES FEW OR NO CLOUDS BELOW 12000 FEET WITH NO
SIGNIFICANT WEATHER AND/OR OBSTRUCTIONS TO VISIBILITY.

COZ001>005-013-030-031-250300-
...NORTHWEST COLORADO...

CITY           SKY/WX    TMP DP  RH WIND       PRES   REMARKS
CRAIG          RAIN      39  35  86 NW8       29.67R FOG
HAYDEN         CLOUDY    37  30  75 NW18      29.65R
MEEKER         RAIN      45  39  79 NW16G30   29.64R
MOUNT WERNER   NOT AVBL
STEAMBOAT SPGS CLOUDY    42  37  83 S8G17     29.63S
WALDEN           N/A     36  34  93 S6        29.67F
$$

COZ006>008-011-250300-
...WEST CENTRAL VALLEYS...

CITY           SKY/WX    TMP DP  RH WIND       PRES   REMARKS
GRAND JUNCTION MOCLDY    64  27  24 W26G36    29.55R
MONTROSE       FAIR      59  26  28 SE8       29.63F
EAGLE          CLOUDY    53  29  39 SW21G26   29.65F
RIFLE          CLOUDY    60  27  28 S9G18     29.56F
DELTA          CLOUDY    63  28  26 S7        29.59S
NUCLA          CLOUDY    59  27  29 S9        29.66F
$$

COZ017>023-064>068-250300-
...SOUTHWEST COLORADO...

CITY           SKY/WX    TMP DP  RH WIND       PRES   REMARKS
DURANGO        CLOUDY    51  29  42 N13       29.74F
CORTEZ         CLOUDY    54  32  43 N5        29.66F
PAGOSA SPRINGS CLOUDY    49  28  43 W12       29.84S
TELLURIDE      CLOUDY    42  29  59 E3        29.84F
WOLF CREEK PAS HVY SNOW  27  27 100 S23G37    29.95S VSB<1/4 WCI  12
$$

COZ009-010-012-014-032>034-037-058>063-250300-
...CENTRAL COLORADO...

CITY           SKY/WX    TMP DP  RH WIND       PRES   REMARKS
ASPEN          CLOUDY    47  29  49 SE6       29.67F
BUENA VISTA    FAIR      47  27  44 W14G21    29.70R
COPPER MTN     CLOUDY    34  25  69 MISG      29.82F
BERTHOUD PASS  MOCLDY    27  16  63 W18       29.82F WCI  13
COTTONWOOD PAS LGT SNOW  41  28  60 W21G40    29.74S
GUNNISON       FAIR      50  26  39 SW8       29.72F
KREMMLING      FAIR      50  32  50 W14G23    29.63F
LEADVILLE      FAIR      38  23  55 S9        29.74F
MONARCH PASS   SNOW      28  27  93 W23G33    29.96F VSB<1/4 WCI  14
SALIDA         MOCLDY    50  30  46 N7        29.77S
SUNLIGHT       SNOW      30  28  93 SW24G39   29.78F VSB 1/2 WCI  16
WILKERSON PASS FAIR      34  21  60 SW16G26   29.82F WCI  23
$$

COZ069>075-250300-
...SAN LUIS VALLEY/SANGRE DE CRISTO MOUNTAINS...

CITY           SKY/WX    TMP DP  RH WIND       PRES   REMARKS
ALAMOSA        CLOUDY    50  27  40 W15G26    29.77R
LA VETA PASS   MOCLDY    39  21  48 SW32G46   29.91S
SAGUACHE       FAIR      50  25  37 NW9       29.74S
$$

COZ035-036-038>040-250300-
...NORTHERN COLORADO FRONT RANGE...

CITY           SKY/WX    TMP DP  RH WIND       PRES   REMARKS
DENVER INTL AP MOCLDY    55  35  47 NE20      29.55R
DMNS CITY PARK   N/A     57  35  43 NE16      29.56R
AURORA         NOT AVBL
FRONT RANGE AP MOCLDY    57  37  47 N21G28    29.55S
ERIE MUNI ARPT FAIR      52  40  64 N7        29.56S
BOULDER MUN AP LGT RAIN  52  39  62 N8        29.56F
CENTENNIAL     MOCLDY    57  35  43 N15G23    29.56R
BROOMFIELD     MOCLDY    57  39  51 NW16      29.57S
FORT COLLINS   FAIR      49  43  80 E7        29.58F
LONGMONT       DRIZZLE   53  42  65 N10       29.58F
$$

COZ041-046-047-076>085-087-088-250300-
...PIKES PEAK/PALMER DIVIDE AND SOUTHERN FOOTHILLS...

CITY           SKY/WX    TMP DP  RH WIND       PRES   REMARKS
COLO. SPRINGS  CLOUDY    59  35  40 N9        29.59R
A. F. ACADEMY  CLOUDY    58  24  26 W14       29.60R
SCHRIEVER AFB  MOCLDY    57  37  47 N18       29.59R
ELLICOTT       FAIR     N/A N/A N/A VRB6G18   29.57R
FALCON         FAIR      53  34  49 E8        29.64S
FORT CARSON    FAIR      64  24  22 W9        29.57R
LIMON          CLOUDY    57  37  47 E12       29.56S
MONUMENT HILL  CLOUDY    50  32  50 S6        29.64S
TRINIDAD       FAIR      65  20  17 W21G31    29.57F
$$

COZ042>045-048>051-090-091-250300-
...NORTHEAST COLORADO...

CITY           SKY/WX    TMP DP  RH WIND       PRES   REMARKS
GREELEY ARPT   FAIR      53  43  68 NE7       29.58S
AKRON          LGT RAIN  50  43  77 N15       29.59R
BURLINGTON     NOT AVBL
WRAY           NOT AVBL
STERLING       LGT RAIN  55  41  58 E5        29.55F
HOLYOKE        FAIR      61  37  41 N5        29.55R
FORT MORGAN    MOCLDY    51  42  71 E8        29.57S
$$

COZ086-089-092>099-250300-
...SOUTHEAST COLORADO...

CITY           SKY/WX    TMP DP  RH WIND       PRES   REMARKS
PUEBLO         FAIR      68  28  22 W14       29.49F
LA JUNTA       FAIR      73  25  16 W22G28    29.48R
LAMAR          FAIR      69  39  33 SE14      29.46R
SPRINGFIELD      N/A     63  38  39 NE9       29.50S
$$




USA.gov is the U.S. government's official web portal to all federal, state and local government web resources and services.